Location: Cisewo
(53.3833°N, 14.9000°E)
Time: 10:30:47
(UTC+00:00)

Cosmos 2184 Rocket - Pass Details

Date: 18 April 2021
Orbit: 959 x 1002 km, 82.9° (Epoch: 14 May)

Event Time Altitude Azimuth Distance (km) Brightness Sun altitude
Rises 23:02:18 0° 349° (NNW) 3,734 8.3 -25.4°
Reaches altitude 10° 23:04:51 10° 349° (N) 2,776 7.4 -25.4°
Maximum altitude 23:11:15 89° 74° (ENE) 998 3.9 -25.4°
Enters shadow 23:12:35 59° 169° (S) 1,133 4.0 -25.4°
